[Date Prev][Date Next][Thread Prev][Thread Next] - [Date Index][Thread Index][Author Index]
2 Line ISS Keps 3-2
- Subject: [sarex] 2 Line ISS Keps 3-2
- From: "Dave Larsen PhD" <doc@xxxxxxxxxxx>
- Date: Wed, 2 Mar 2005 02:05:30 -0800
ISS
1 25544U 98067A 05061.36548611 .00015662 00000-0 12989-3 0 9257
2 25544 51.6451 87.3066 0004256 149.9398 45.5647 15.70406427358883
----
Via the sarex mailing list at AMSAT.ORG courtesy of AMSAT-NA.
To unsubscribe, send "unsubscribe sarex" to Majordomo@amsat.org
AMSAT Home